Paso Robles, CA

8:48 AM PST on December 13, 2019 (GMT -0800)
Paso Robles Municipal

Weather History for KPRB - October, 2019

Change the Weather History Date:

Thursday, October 3, 2019

  Actual Average Record
Temperature  
Mean Temperature 60 °F 65 °F  
Max Temperature 82 °F 84 °F 103 °F (1987)
Min Temperature 37 °F 47 °F 34 °F (1973)
Degree Days  
Heating Degree Days 5 2  
Month to date heating degree days 22 6  
Since 1 July heating degree days 48 38  
Cooling Degree Days 0 3  
Month to date cooling degree days 0 9  
Year to date cooling degree days 1035 900  
Growing Degree Days 10 (Base 50)    
Moisture  
Dew Point 36 °F    
Average Humidity 49    
Maximum Humidity 73    
Minimum Humidity 12    
Precipitation  
Precipitation 0.00 in 0.01 in 0.14 in (1967)
Month to date precipitation 0.00 0.03  
Year to date precipitation 11.28 9.15  
Sea Level Pressure  
Sea Level Pressure 29.96 in    
Wind  
Wind Speed 4 mph ()    
Max Wind Speed 20 mph    
Max Gust Speed 24 mph    
Visibility 10.0 miles    
Events      
T = Trace of Precipitation, MM = Missing Value Source: Averaged Metar Reports

Daily Weather History Graph

Daily Weather History Graph

Search for Another Location

Airport or City:

Astronomy

Oct. 03, 2019 Rise Set
Actual Time 6:58 AM PDT 6:43 PM PDT
Civil Twilight 6:33 AM PDT 7:09 PM PDT
Nautical Twilight 6:03 AM PDT 7:38 PM PDT
Astronomical Twilight 5:34 AM PDT 8:08 PM PDT
Moon 12:25 PM PDT (10/3) 10:37 PM PDT (10/3)
Length of Visible Light 12h 35m
Length of Day
11h 44m
Waxing Crescent, 31% of the Moon is Illuminated
Oct 3
Waxing Crescent
Oct 5
First Quarter
Oct 13
Full
Oct 21
Last Quarter
Oct 27
New

Hourly Weather History & Observations

Time (PDT) Temp. Windchill Dew Point Humidity Pressure Visibility Wind Dir Wind Speed Gust Speed Precip Events Conditions
12:53 AM 46.0 °F - 30.9 °F 56% 29.97 in 10.0 mi Calm Calm - N/A   Clear
1:53 AM 45.0 °F 43.5 °F 32.0 °F 60% 29.97 in 10.0 mi ESE 3.5 mph - N/A   Clear
2:53 AM 45.0 °F - 33.1 °F 63% 29.97 in 10.0 mi Calm Calm - N/A   Clear
3:53 AM 44.1 °F - 34.0 °F 68% 29.96 in 10.0 mi Calm Calm - N/A   Clear
4:53 AM 43.0 °F - 32.0 °F 65% 29.96 in - Calm Calm - N/A   Clear
5:53 AM 41.0 °F 39.0 °F 32.0 °F 70% 29.97 in - NNE 3.5 mph - N/A   Clear
6:53 AM 39.0 °F 36.8 °F 30.9 °F 73% 29.98 in - NE 3.5 mph - N/A   Clear
7:53 AM 42.1 °F - 32.0 °F 67% 30.00 in - Calm Calm - N/A   Clear
8:53 AM 51.1 °F - 37.9 °F 61% 30.00 in 10.0 mi Calm Calm - N/A   Clear
9:53 AM - - - N/A% 30.01 in - North - - N/A   Unknown
10:53 AM - - - N/A% 29.99 in - North - - N/A   Unknown
11:53 AM - - - N/A% 29.98 in - North - - N/A   Unknown
12:53 PM 75.9 °F - 35.1 °F 23% 29.95 in 10.0 mi Calm Calm - N/A   Clear
1:53 PM 80.1 °F - 34.0 °F 19% 29.92 in 10.0 mi WSW 4.6 mph - N/A   Clear
2:53 PM 81.0 °F - 30.9 °F 16% 29.91 in 10.0 mi WNW 5.8 mph - N/A   Clear
3:53 PM 82.9 °F - 28.9 °F 14% 29.90 in 10.0 mi North 10.4 mph - N/A   Clear
4:53 PM 82.9 °F - 24.1 °F 12% 29.89 in 10.0 mi North 8.1 mph - N/A   Clear
5:53 PM 78.1 °F - 30.0 °F 17% 29.91 in 10.0 mi NW 9.2 mph - N/A   Clear
6:53 PM 68.0 °F - 43.0 °F 40% 29.93 in 10.0 mi WNW 13.8 mph - N/A   Clear
7:53 PM 63.0 °F - 46.9 °F 56% 29.95 in 10.0 mi NW 16.1 mph - N/A   Clear
8:53 PM 61.0 °F - 46.9 °F 60% 29.97 in 10.0 mi WNW 15.0 mph - N/A   Clear
9:53 PM 59.0 °F - 46.0 °F 62% 30.00 in 10.0 mi WNW 18.4 mph - N/A   Clear
10:53 PM 57.9 °F - 45.0 °F 62% 30.02 in 10.0 mi WNW 17.3 mph - N/A   Clear
11:53 PM 55.9 °F - 45.0 °F 67% 30.04 in 10.0 mi NW 13.8 mph - N/A   Clear